Tracking 21474 objects as of 26-Sep-2020
HD Live streaming from Space Station
objects crossing your sky now

THORAD DELTA 1 DEB

Track THORAD DELTA 1 DEB now!
10-day predictions


NORAD ID: 8164
Int'l Code: 1974-089AE
Perigee: 1,465.2 km
Apogee: 1,656.9 km
Inclination: 101.6 °
Period: 117.2 minutes
Semi major axis: 7932 km
RCS: 0.1159 m2 (medium)
Launch date: November 15, 1974
Source: United States (US)
Launch site: AIR FORCE WESTERN TEST RANGE (AFWTR)

Note: This is SATELLITE DEBRIS
aabbcc
Your satellite tracking list
Your tracking list is empty




NASA's NSSDC Master Catalog

Two Line Element Set (TLE):
1  8164U 74089AE  20269.42323006 -.00000060  00000-0 -15185-3 0  9997
2  8164 101.5835 144.5491 0120844 278.7604 256.4480 12.28920602 58032
Source of the keplerian elements: AFSPC